Theta_e
307 309 312 313 313 312 311 311 311 310 311 311 312 312 312 312 312 312 312 313 314 313 313 313 313 312 311 310 309 309 309 309 309 307 307 306 306 307 307 307 308 309 310 311 311 311 309 309 309 309 310 309 308 308 308 308 310 320 319 310 308 308 305 306 306 304 304 304 302 301 302 304 302 301 300 299 301 301 300 301 300 300 299 299 299 300 300 300
307 308 310 313 312 312 312 312 311 311 311 312 312 312 312 312 312 312 312 313 314 313 313 313 314 313 312 311 310 310 309 308 308 307 306 306 307 307 308 308 309 309 310 310 310 310 308 307 307 308 310 309 308 309 309 307 309 318 320 312 310 311 305 304 306 303 303 302 301 301 300 303 303 301 300 300 301 300 300 300 301 301 300 299 299 299 300 300
307 309 310 313 312 311 312 311 311 311 311 312 312 312 312 312 312 312 312 314 314 313 314 314 314 314 313 313 312 312 311 309 309 308 306 307 308 307 308 308 309 309 310 309 309 310 308 307 306 307 309 308 307 308 309 309 309 310 314 313 308 306 303 301 303 303 303 302 302 302 300 301 302 301 300 301 301 299 301 301 301 302 301 301 299 299 300 300
307 310 311 312 312 311 311 311 311 311 311 311 311 312 311 312 313 312 313 314 314 314 314 314 314 314 314 314 313 313 312 310 308 306 306 307 308 308 309 308 309 310 309 309 308 308 308 307 306 307 308 308 309 309 307 308 310 307 311 313 305 303 303 300 302 304 304 303 303 302 300 300 300 300 300 301 301 300 301 301 303 304 302 302 299 299 300 300
307 311 311 312 311 310 310 310 310 310 311 311 311 311 311 312 312 312 313 314 314 313 313 313 313 313 314 315 314 314 316 313 307 306 307 307 307 308 309 309 310 311 310 309 308 308 308 307 309 311 309 309 312 311 306 304 307 306 306 307 304 304 303 301 302 303 302 302 302 302 301 301 300 300 301 302 302 304 304 301 302 303 301 300 299 299 299 299
307 310 311 310 310 310 310 310 310 310 310 310 311 311 311 312 312 313 313 314 314 313 313 313 312 312 311 313 314 314 316 311 306 306 307 307 308 308 309 309 309 311 310 310 309 308 308 307 310 312 308 307 308 308 305 302 304 306 304 303 303 304 302 301 303 302 302 303 302 302 301 301 301 301 302 302 303 306 303 300 300 299 298 299 299 299 298 298
307 310 311 310 310 310 310 311 311 310 310 311 311 311 311 311 312 312 313 314 314 313 314 313 313 313 310 311 310 311 312 308 305 306 306 306 308 308 309 309 309 310 310 310 308 306 306 307 308 308 307 307 304 303 303 301 303 305 304 302 301 303 302 302 303 303 304 304 302 302 301 301 302 302 301 301 303 303 300 299 299 298 298 299 299 298 298 298
306 308 310 310 310 310 311 311 311 310 311 311 311 311 311 311 311 312 313 314 314 313 313 313 314 313 312 311 310 310 310 306 305 306 306 307 308 308 308 309 309 310 309 308 307 305 305 307 307 307 307 306 304 304 303 303 304 304 303 302 301 302 302 303 305 305 304 303 302 302 302 303 304 302 301 302 304 302 298 298 298 297 297 297 297 298 298 298
305 306 308 309 309 310 311 311 310 311 311 311 312 311 311 310 310 311 313 314 314 313 312 314 315 314 311 309 309 310 308 305 306 307 306 307 308 308 309 309 309 309 309 308 307 307 307 308 307 307 306 303 304 305 304 305 304 304 302 302 303 302 302 303 304 305 304 304 303 303 303 304 303 301 302 305 304 299 297 298 296 296 298 297 296 297 298 299
306 306 306 307 309 309 310 310 310 311 311 312 311 311 311 310 310 311 312 313 313 312 313 314 315 315 310 309 311 310 306 306 306 306 307 307 308 308 308 308 308 309 309 307 307 308 308 307 304 304 305 304 304 304 304 305 303 302 302 303 303 303 303 303 304 304 304 304 303 304 304 304 302 300 303 306 303 299 299 301 298 298 302 298 296 297 298 299
306 306 306 306 308 308 309 309 310 311 311 311 311 310 310 309 310 311 312 312 312 312 313 314 314 313 308 308 312 309 306 306 306 306 307 307 308 308 308 308 308 309 308 307 306 305 306 305 303 304 306 304 303 302 301 302 302 301 302 304 303 303 303 303 303 303 303 304 303 303 303 303 302 301 306 306 302 300 301 302 300 300 302 299 296 296 298 298
306 306 306 306 307 307 308 308 309 310 310 310 310 310 309 310 310 311 311 311 310 311 311 311 311 310 308 307 309 308 306 307 306 306 307 307 307 307 307 308 307 308 308 306 305 306 306 305 305 307 306 303 303 303 301 301 302 302 304 304 303 304 304 302 304 303 303 304 303 302 303 305 304 304 309 306 300 300 301 302 301 300 301 300 297 295 296 299
306 306 306 306 306 307 307 308 309 309 309 310 309 309 309 309 310 311 311 310 309 309 309 309 309 309 311 309 307 307 307 307 306 306 307 307 307 307 307 308 307 308 308 307 306 306 307 306 306 305 304 303 303 302 301 302 303 303 304 305 305 307 307 303 303 303 302 304 303 302 306 311 310 308 308 303 299 300 301 301 301 301 300 301 300 297 296 297
306 306 306 306 306 306 307 307 308 309 309 309 309 309 309 309 310 310 310 310 310 309 308 309 309 308 311 309 306 306 307 306 306 306 307 307 308 308 306 307 307 306 307 307 306 305 306 305 305 304 302 303 303 302 303 303 304 305 303 306 310 310 307 305 304 304 302 303 303 302 308 316 314 311 307 300 299 300 301 302 301 301 301 301 302 301 299 297
306 306 306 306 306 306 306 308 308 309 309 309 309 309 309 309 310 310 310 310 309 309 309 309 308 310 311 308 305 306 306 306 307 306 306 307 308 308 307 307 307 307 306 306 306 305 306 305 305 304 302 303 304 304 306 305 305 306 304 307 311 309 307 306 305 306 304 303 302 303 309 315 312 311 306 300 299 300 301 302 300 300 300 300 301 302 300 297
306 306 306 306 306 306 307 308 308 308 309 308 308 309 309 309 309 310 310 309 310 309 309 308 307 310 313 308 305 306 306 307 308 306 306 307 307 308 309 308 308 308 308 309 309 308 306 307 306 304 304 305 305 309 312 311 312 311 308 310 311 309 308 306 304 305 306 304 303 303 308 312 308 307 304 299 299 300 301 302 301 300 300 300 300 300 300 298
306 306 306 306 306 307 307 308 308 308 308 307 308 308 308 308 308 309 310 310 310 309 309 308 307 309 310 306 306 307 307 308 308 306 306 306 307 309 307 309 311 309 310 311 312 312 311 313 309 305 309 307 309 321 320 311 314 313 309 311 309 307 307 307 305 304 304 304 304 303 305 309 309 307 304 300 300 300 301 302 301 301 300 300 300 299 299 299
306 306 306 306 307 308 308 307 307 307 307 308 308 308 308 309 308 309 310 310 310 310 309 309 311 311 308 307 308 307 307 309 308 305 306 306 306 308 309 311 310 310 318 317 313 314 314 316 314 311 314 310 311 327 322 312 316 314 310 311 306 304 306 308 308 304 304 304 305 305 305 309 311 309 306 301 300 300 301 301 301 301 301 300 300 300 299 300
306 306 306 306 307 307 308 307 307 307 308 308 308 309 309 308 310 311 309 310 315 316 311 311 314 313 309 309 308 306 307 310 309 305 306 308 307 308 310 312 311 314 325 322 317 319 318 319 317 313 314 309 309 315 313 311 315 312 311 312 309 307 307 307 308 304 303 305 307 308 308 309 310 310 309 303 300 300 300 300 300 301 301 301 300 301 300 301
307 306 306 307 307 307 307 307 307 308 308 309 309 309 309 313 317 316 313 313 314 312 310 312 312 310 310 310 309 310 310 309 308 304 306 309 309 311 310 315 323 323 321 319 317 316 315 319 316 313 312 308 307 307 305 306 307 307 311 314 313 311 308 306 306 305 303 306 309 308 308 310 311 313 309 303 300 301 301 301 301 302 301 302 302 303 304 302
307 306 306 307 306 307 307 307 307 308 309 310 311 311 314 321 319 313 313 313 309 307 309 310 309 309 309 308 309 311 312 311 307 304 307 308 310 312 309 318 331 324 317 316 316 315 317 316 311 312 315 308 305 305 304 305 306 307 312 319 316 311 310 307 305 305 303 304 308 306 308 313 314 314 308 301 301 302 302 301 302 303 302 301 303 304 305 303
306 306 307 306 307 307 306 307 308 308 310 311 312 312 312 316 314 310 312 311 306 306 310 308 309 311 308 307 309 308 312 315 309 306 306 308 312 314 316 327 331 321 319 318 316 317 319 311 305 308 310 305 305 307 306 306 310 312 314 320 318 310 310 308 305 306 303 305 311 309 309 315 316 314 310 304 304 304 302 302 302 303 304 304 304 305 306 306
306 307 307 306 307 306 306 308 308 308 311 310 311 312 310 310 310 308 309 310 307 305 309 311 313 315 311 307 307 309 314 312 309 309 307 309 316 317 324 335 330 324 325 324 319 315 310 306 305 304 304 306 310 311 308 307 312 316 317 318 314 309 309 308 307 308 306 305 307 308 311 320 320 315 312 307 304 305 306 304 302 302 304 306 306 306 306 307
307 306 306 307 306 307 307 307 308 309 310 310 310 311 310 310 309 309 310 313 310 306 308 309 310 312 311 308 307 311 315 309 308 310 306 310 315 314 320 324 326 325 317 316 324 318 307 303 303 306 307 308 310 313 314 314 314 315 318 318 313 310 308 309 310 312 312 306 304 310 317 328 330 321 318 311 304 305 307 306 306 305 305 306 307 309 309 309
307 306 307 307 306 307 307 307 308 309 309 310 310 309 309 309 309 309 315 317 311 309 310 309 308 308 307 308 308 309 312 308 307 307 306 310 312 312 313 313 321 322 308 307 316 314 306 301 302 310 317 313 310 314 315 315 317 316 313 312 310 309 309 314 318 316 318 312 307 310 315 326 334 326 320 315 308 308 308 307 309 310 308 307 308 309 312 312
306 307 307 307 307 307 307 309 309 308 310 309 308 310 309 310 310 308 319 326 314 309 313 312 309 308 308 308 308 308 308 306 306 307 308 308 308 309 310 310 313 315 311 310 309 307 306 304 305 310 317 317 316 314 308 309 321 317 309 307 309 310 311 318 322 315 315 313 308 312 316 321 331 327 319 317 313 312 313 311 312 314 313 312 312 312 316 316
306 307 307 307 307 307 309 311 309 308 310 308 309 311 308 310 309 307 318 321 309 309 314 314 310 310 309 307 308 310 304 306 309 308 308 308 308 309 311 313 310 310 311 310 307 306 306 309 311 311 315 317 316 312 307 307 318 313 308 308 310 311 312 317 320 316 315 312 313 320 319 315 324 330 323 315 311 312 314 314 316 316 315 314 315 315 318 317
307 307 307 308 307 308 311 311 309 309 310 309 310 310 309 309 308 314 321 309 303 313 314 311 311 310 310 307 309 313 310 310 311 306 306 308 308 310 315 316 311 311 309 309 306 306 304 309 310 310 315 315 310 309 306 307 313 311 306 307 308 309 312 316 321 321 316 311 316 324 315 311 328 337 323 311 310 312 314 315 316 316 313 312 313 312 312 311
306 307 307 307 307 308 310 309 310 311 310 310 310 309 309 308 309 319 322 307 304 312 310 307 309 309 312 311 310 315 313 310 311 307 307 308 306 310 314 312 312 313 307 310 314 306 302 306 305 306 311 311 308 306 304 308 311 308 305 307 308 309 311 311 316 322 320 317 322 323 312 309 327 337 320 309 312 315 315 315 314 315 314 312 312 310 309 310
306 307 306 307 308 308 310 311 311 310 309 309 309 310 309 312 323 322 309 305 308 309 308 310 310 310 312 309 308 313 312 312 316 312 309 309 309 311 309 306 313 319 312 313 315 307 303 302 302 305 307 306 305 305 304 305 307 306 307 312 312 314 313 311 319 324 318 324 329 319 310 309 318 330 322 313 318 319 316 315 312 313 314 312 312 312 310 312
306 307 306 308 308 308 311 311 310 309 309 310 309 310 310 316 332 324 302 304 312 310 308 311 313 316 315 308 308 315 314 313 317 315 313 314 315 319 314 307 312 320 326 324 311 307 309 305 303 304 303 303 305 308 305 303 306 309 313 318 315 319 319 317 329 326 315 329 331 315 310 309 313 326 325 317 320 320 315 313 313 312 313 312 312 313 312 312
306 306 307 308 308 309 310 310 309 308 309 311 309 315 323 319 320 318 307 307 311 311 310 309 312 318 317 312 313 317 313 310 313 315 317 317 316 317 314 312 312 310 319 322 309 310 314 308 305 304 303 302 307 311 307 306 311 312 317 326 323 326 326 323 332 325 318 329 320 309 310 310 314 325 326 320 319 317 314 313 314 313 312 313 313 313 313 312
306 307 306 307 310 310 310 309 308 309 309 310 313 324 335 324 312 314 313 310 310 309 310 312 312 314 315 312 311 312 309 306 311 313 310 312 314 310 308 311 313 308 312 315 310 312 312 307 307 307 305 301 304 312 312 312 314 311 315 326 325 325 323 324 329 320 319 326 313 306 311 315 319 319 319 321 318 315 314 311 312 313 313 314 314 314 313 313
306 308 305 307 310 308 311 308 307 311 307 310 324 327 323 316 311 312 311 310 310 310 310 312 311 312 312 311 309 309 308 306 310 314 311 310 312 312 311 308 308 317 325 317 311 312 310 307 308 306 305 302 302 308 310 310 312 312 314 317 321 326 322 321 325 322 323 327 318 309 312 323 323 311 313 316 312 310 310 310 311 311 312 314 314 313 313 313
307 307 305 307 308 308 311 307 307 309 305 318 337 326 315 317 316 317 317 312 312 312 310 310 313 313 311 312 311 308 308 307 309 313 312 311 314 317 317 313 310 315 320 314 311 310 306 306 308 304 303 302 304 304 302 306 310 310 310 312 314 321 325 320 315 318 319 320 321 316 317 328 321 311 314 312 309 310 308 311 313 311 312 313 313 313 314 313
306 306 306 307 307 309 309 307 309 306 308 329 335 320 323 325 314 315 317 313 315 314 310 312 316 314 311 311 312 309 308 307 308 310 310 310 314 314 316 318 313 312 313 314 314 311 306 306 307 305 303 299 302 303 301 305 307 306 310 315 311 309 320 321 311 312 313 312 322 320 318 325 319 315 317 310 310 312 308 310 313 312 313 312 313 315 314 312
306 306 307 307 308 309 307 308 309 304 313 331 326 316 325 319 308 315 317 310 314 316 316 318 312 309 311 310 311 313 310 307 307 309 310 309 310 313 317 316 309 308 312 311 311 314 312 308 307 305 305 302 299 301 303 304 304 306 310 313 308 305 312 316 315 321 318 317 329 323 316 323 321 320 319 312 311 313 310 311 311 311 312 311 312 314 313 313
306 307 308 306 307 307 307 308 307 309 321 327 318 315 317 310 306 315 316 308 311 317 320 321 312 307 312 312 312 313 310 310 312 311 311 310 309 313 317 313 307 307 308 306 307 311 312 313 312 304 305 306 301 301 306 304 300 305 308 305 307 312 316 316 317 324 319 316 327 329 321 319 319 322 321 314 313 313 311 311 310 310 310 310 311 313 313 312
306 310 311 306 306 307 307 307 309 315 322 321 320 318 313 311 310 311 312 310 312 316 314 315 312 309 313 314 315 313 308 313 317 312 309 308 307 309 310 310 308 307 308 307 307 310 309 309 314 306 302 305 304 304 310 311 302 301 305 304 307 314 320 318 315 320 322 318 322 331 330 323 322 326 325 318 315 312 311 311 310 310 308 308 310 311 313 311
306 314 313 305 305 307 306 309 314 318 317 318 327 321 310 313 313 308 309 310 311 312 312 317 315 311 313 312 314 314 309 314 317 312 309 307 308 309 309 311 310 308 308 306 306 314 309 302 312 312 303 304 309 309 313 316 309 305 309 310 309 310 313 314 312 316 324 324 323 325 328 329 326 323 323 321 316 309 310 311 310 308 307 308 309 310 312 309
308 315 314 306 305 306 308 315 318 318 317 315 319 315 309 313 313 309 309 307 307 307 311 320 318 315 318 316 315 314 311 315 316 312 310 308 308 309 308 307 310 307 307 306 307 313 309 306 317 317 310 314 319 309 302 306 307 308 314 317 315 314 316 316 316 316 316 319 326 323 320 326 326 316 316 318 313 309 309 310 310 309 308 308 310 310 309 308
313 319 312 305 306 306 312 318 314 315 325 318 312 311 310 312 312 310 309 307 308 307 308 316 317 317 321 319 316 314 312 315 314 311 312 310 310 311 306 301 305 305 306 308 309 307 308 314 317 318 321 317 309 301 298 300 300 302 305 308 311 316 321 321 319 320 315 310 317 319 316 324 327 317 316 317 313 311 309 308 310 309 308 309 310 309 308 308
324 321 308 304 307 308 314 317 311 316 323 312 306 308 309 312 312 310 308 308 310 308 308 314 313 312 315 312 312 313 312 313 313 313 316 315 312 308 302 299 302 305 307 308 309 304 306 314 313 318 330 318 305 301 299 296 298 303 304 304 308 314 321 325 321 319 318 313 315 317 316 325 331 322 320 319 314 312 309 308 310 309 309 309 309 309 308 308
322 314 307 306 305 307 317 319 316 319 315 306 307 308 307 309 310 310 312 313 312 310 312 315 311 309 312 311 311 313 310 309 311 311 312 315 310 302 300 301 300 305 308 310 311 305 304 315 315 314 323 323 317 313 308 304 303 307 310 307 308 311 314 318 314 310 316 320 321 322 321 325 331 327 323 321 317 315 311 309 310 311 312 310 309 309 308 307
312 309 310 310 306 309 317 320 324 325 315 309 311 310 308 308 307 308 313 314 311 311 313 313 309 310 313 310 310 311 308 307 310 309 308 312 309 300 300 301 300 306 309 306 306 306 306 312 316 316 315 314 317 319 320 320 312 308 312 309 308 308 309 315 316 313 318 320 318 322 324 320 323 326 325 323 321 317 314 310 309 311 311 310 309 309 308 307
312 312 312 311 311 312 313 313 320 323 318 315 312 310 310 311 308 305 309 310 308 308 310 309 309 312 312 309 310 312 308 306 307 309 311 313 310 303 300 301 302 306 308 305 305 307 309 310 313 320 319 314 320 324 317 315 313 312 312 310 309 308 308 316 320 318 321 319 316 319 319 315 317 319 320 323 323 319 316 313 310 311 311 309 309 308 308 306
312 316 315 313 314 314 312 313 317 318 319 318 311 309 312 314 310 306 306 307 307 307 309 308 309 311 311 310 312 313 310 307 306 308 312 313 308 302 298 299 301 303 304 304 303 306 311 311 311 315 315 315 321 321 310 308 313 316 315 314 314 309 307 312 316 317 321 320 316 317 317 316 315 314 315 320 322 321 319 315 312 312 310 309 308 307 307 306
308 316 315 310 315 317 313 315 318 316 316 314 310 310 313 315 313 311 308 305 304 306 307 308 310 313 315 315 314 313 310 308 309 309 311 310 307 304 302 299 298 300 302 301 301 307 314 313 311 310 312 317 316 313 310 310 312 315 316 316 315 310 309 311 312 314 318 316 313 318 321 319 315 313 313 315 317 319 318 315 311 308 307 308 308 308 308 306
305 312 308 304 314 320 314 314 318 316 314 313 313 312 313 316 315 312 309 306 308 309 307 310 316 316 316 315 315 317 314 312 313 314 312 310 307 307 308 306 301 298 300 302 301 305 311 315 313 307 310 318 315 308 307 308 310 312 313 313 313 311 309 309 310 311 313 314 314 316 318 316 312 311 311 311 315 318 315 312 308 306 307 309 309 308 307 306
308 313 310 308 315 316 312 313 316 315 313 312 313 311 312 317 316 311 309 312 316 312 306 310 319 318 315 314 316 319 319 316 315 316 315 314 310 309 312 315 310 300 299 303 303 300 305 316 316 309 312 320 314 305 304 306 308 310 310 309 309 310 308 306 307 307 308 311 311 310 312 312 309 309 310 310 313 316 315 314 311 309 308 308 308 308 306 306
308 309 308 311 313 311 311 313 314 316 313 310 311 312 311 315 316 312 310 312 318 317 310 312 318 315 310 310 315 318 317 318 317 315 316 316 313 312 311 312 314 308 303 303 304 302 304 310 311 307 313 322 313 307 309 307 305 307 310 308 306 308 311 309 307 307 308 309 310 309 310 309 308 310 312 312 314 314 313 313 311 310 308 306 307 308 306 306
308 305 306 311 312 310 312 314 313 315 315 313 313 312 312 314 314 312 309 310 312 314 311 311 316 317 313 311 314 314 316 321 318 311 311 313 313 314 312 308 310 312 307 303 305 306 306 311 314 310 314 320 311 307 312 310 308 315 320 316 310 308 309 308 307 307 307 307 309 310 310 310 311 313 313 313 315 315 313 311 311 311 310 306 305 306 306 305
Wind_Speed
9 10 11 12 12 12 12 11 12 13 15 16 17 17 16 16 15 15 15 14 15 16 16 15 15 16 18 20 21 23 23 25 30 36 27 18 22 17 13 13 14 15 12 10 13 17 18 18 18 20 19 13 8 4 6 7 5 5 4 5 3 2 3 5 6 6 3 4 5 4 4 7 3 2 0 2 5 2 2 2 2 2 3 1 3 7 16 20
9 10 11 12 13 12 12 12 13 13 15 15 16 16 15 15 14 13 12 11 12 13 12 11 11 11 12 13 14 19 25 31 35 32 22 20 19 12 10 12 13 14 12 12 13 15 13 8 13 16 10 5 5 5 4 4 5 4 4 5 2 3 2 3 7 5 3 6 5 3 3 5 6 3 1 1 2 1 2 2 3 2 2 2 7 14 19 21
9 9 11 12 13 12 12 12 13 13 14 14 15 15 13 12 12 11 10 10 10 11 10 8 7 6 6 6 7 10 17 28 26 19 23 22 16 12 12 12 13 14 13 15 17 19 17 10 16 15 6 5 5 5 5 4 4 3 4 5 1 4 1 1 5 6 4 7 6 3 2 3 5 5 1 3 4 2 4 4 1 3 5 4 9 15 18 18
9 10 11 13 13 13 13 12 12 13 13 14 15 13 11 10 11 9 9 10 10 10 9 7 6 4 2 2 3 2 4 17 11 14 23 20 15 13 12 12 14 14 12 18 20 21 20 17 17 12 6 5 5 5 6 4 2 3 3 5 3 4 4 3 2 6 5 7 7 5 4 2 4 4 2 5 4 4 6 7 7 8 9 8 10 15 17 17
10 11 13 14 15 14 13 13 13 13 13 13 13 11 9 9 9 7 8 9 9 10 9 10 9 7 3 2 2 5 3 7 5 17 22 18 15 12 11 14 14 11 11 15 15 16 17 15 13 8 6 5 5 5 5 5 4 4 3 4 4 5 5 2 1 6 5 6 6 7 5 4 3 2 4 8 6 6 6 8 10 9 12 14 15 17 17 17
11 12 14 15 15 14 13 13 13 13 13 12 11 9 9 8 8 7 7 9 10 10 11 12 12 12 11 6 2 2 5 4 8 19 21 18 14 10 11 14 12 8 10 13 11 13 13 11 9 6 4 5 6 5 3 6 5 5 2 3 3 5 5 1 1 3 4 7 6 6 4 3 3 2 4 8 7 8 7 9 14 13 17 21 19 18 16 17
11 12 14 14 13 13 13 13 13 12 12 11 10 9 9 8 7 7 7 9 10 9 9 10 9 11 13 15 16 14 10 2 14 21 20 17 12 8 10 12 12 8 12 14 13 12 9 11 9 4 4 5 6 5 4 6 7 7 4 1 3 6 5 1 2 4 6 7 5 4 1 2 4 3 2 6 8 8 7 9 14 15 16 19 17 17 18 19
11 12 12 12 11 13 13 13 11 11 11 10 10 9 8 8 8 8 7 8 8 8 6 6 5 6 5 12 16 12 6 6 18 21 18 14 11 9 7 9 11 13 15 16 17 13 8 10 8 4 5 5 4 4 3 8 9 6 4 3 2 4 3 2 5 6 5 4 2 3 1 5 6 4 2 6 8 7 6 5 10 12 13 15 15 17 18 18
10 11 11 10 11 12 13 11 10 10 9 10 10 8 8 8 8 8 8 7 7 6 3 3 5 7 8 14 13 7 3 9 16 18 16 12 11 10 8 8 8 10 14 12 12 11 6 3 3 5 7 4 6 3 1 5 4 2 4 4 4 3 2 2 4 4 2 1 2 4 3 7 5 2 4 8 9 7 5 6 9 12 11 11 13 17 18 18
9 9 10 10 11 12 12 10 9 9 9 9 8 7 8 8 8 8 8 6 4 3 2 4 5 4 7 10 11 6 5 10 14 15 14 12 11 11 12 11 7 9 12 12 8 8 8 9 10 12 10 5 5 4 4 4 4 4 6 6 6 4 2 3 2 1 1 0 1 4 4 7 3 1 4 8 8 7 5 6 7 9 9 9 11 16 18 19
8 8 9 9 10 11 11 10 10 10 9 8 7 7 8 8 9 9 8 6 5 4 4 5 3 3 11 13 9 5 5 10 14 14 12 16 16 16 17 14 11 14 17 18 16 17 23 22 19 14 6 4 4 5 6 4 6 6 7 7 7 5 3 3 1 2 1 1 3 5 2 5 3 1 6 8 6 6 7 7 6 8 8 8 10 14 16 19
7 7 7 8 9 10 10 10 11 10 8 7 7 7 8 8 10 10 9 8 8 10 10 11 8 10 22 20 7 3 6 12 14 12 11 18 22 21 20 17 15 17 21 22 16 16 18 11 12 9 2 5 5 4 3 2 6 5 6 7 5 7 4 2 1 1 0 1 3 4 1 5 3 7 9 6 6 6 6 8 7 7 8 7 8 10 14 19
7 6 6 6 8 9 10 10 10 9 8 7 7 7 8 8 10 10 10 9 11 12 11 12 7 9 18 11 4 5 7 13 14 10 11 16 20 20 20 19 19 19 22 23 14 10 8 8 18 14 4 7 3 3 6 3 4 3 4 5 2 6 4 4 1 0 1 1 3 4 2 6 6 10 9 4 7 7 6 8 7 6 6 6 6 6 10 17
7 5 5 6 7 9 9 9 9 9 8 7 8 9 10 11 12 11 11 10 9 9 8 8 4 7 13 3 2 7 6 9 14 13 13 14 17 20 22 22 23 22 22 24 20 18 18 23 27 15 4 6 5 5 6 4 3 3 2 2 3 2 3 5 1 2 1 1 5 6 2 5 7 9 7 5 7 9 8 8 7 6 6 6 6 6 8 15
6 5 5 7 8 9 9 9 9 9 9 10 11 11 12 12 12 11 11 10 9 8 7 8 8 11 11 3 2 6 6 7 13 16 15 13 14 17 19 21 23 24 24 24 23 20 21 25 20 8 3 5 6 7 5 3 3 3 1 2 2 1 3 6 3 4 3 2 4 6 2 5 7 9 6 6 7 8 8 8 7 7 7 6 7 7 7 14
7 5 6 9 11 11 10 10 10 12 12 12 13 12 12 12 11 11 10 9 8 5 5 8 10 12 8 1 2 5 7 8 12 13 13 14 15 13 14 17 17 17 18 17 16 15 19 20 10 4 5 4 5 7 4 4 4 4 2 2 3 1 1 4 3 3 3 1 1 2 2 4 4 6 5 4 7 7 7 7 7 7 8 7 7 8 7 9
7 6 8 13 13 12 11 12 13 13 13 13 13 12 11 10 9 10 10 10 8 5 9 11 11 12 6 2 2 3 6 8 10 10 10 14 14 11 11 12 10 10 12 12 10 8 11 11 3 1 5 3 3 4 5 4 3 3 3 1 3 2 2 1 2 2 2 2 1 0 2 6 7 6 6 4 7 7 7 8 7 7 7 7 7 7 7 7
7 8 12 15 15 13 13 14 14 13 13 13 13 12 12 11 10 12 11 11 10 9 11 8 8 8 3 2 2 3 6 8 10 10 9 10 11 12 11 9 6 5 6 8 8 7 6 5 2 2 4 5 4 5 4 2 3 3 2 1 1 1 1 1 3 2 2 1 2 1 3 10 11 9 6 6 6 7 9 8 6 7 7 8 7 6 8 7
8 10 15 16 15 14 14 14 14 15 16 16 15 15 15 12 11 14 19 15 8 6 5 3 5 3 3 0 2 5 5 5 8 11 11 10 8 10 11 9 6 5 5 4 5 5 3 4 5 4 2 3 2 4 4 4 4 4 4 4 3 3 2 3 4 3 1 2 3 4 5 8 10 10 7 6 6 7 9 7 6 7 7 7 6 6 8 7
10 13 16 16 15 15 14 14 16 18 16 14 14 13 10 8 7 7 16 17 6 2 3 1 2 2 2 2 4 5 2 3 6 12 15 12 6 6 8 9 7 8 5 1 3 3 4 5 4 3 4 2 3 3 2 1 3 2 2 3 3 4 2 3 3 4 1 2 4 4 5 8 10 10 8 4 5 7 8 8 8 8 7 7 6 7 8 7
12 14 16 15 16 15 14 16 17 15 11 8 8 6 3 3 4 1 2 8 4 4 7 3 2 5 4 2 6 5 1 2 7 15 17 12 5 3 5 6 6 6 4 2 2 3 5 7 2 5 7 5 4 3 1 2 1 1 3 3 1 2 2 4 2 4 1 1 4 2 5 9 9 8 7 1 6 8 10 9 9 10 8 7 7 9 8 7
14 15 16 15 15 15 16 17 14 10 7 4 5 4 3 5 8 9 7 5 4 6 6 3 4 5 3 3 7 6 2 4 7 13 17 13 6 3 2 5 7 2 4 3 2 5 6 3 3 4 4 3 2 2 3 2 1 1 2 3 1 1 3 4 3 4 2 1 4 4 6 8 9 7 6 3 6 7 8 10 9 9 8 7 7 8 8 7
15 15 16 15 14 15 16 15 10 6 3 1 5 8 10 13 15 14 11 6 2 5 6 5 4 4 4 4 8 7 5 5 3 9 17 14 5 3 4 6 5 2 5 5 3 4 3 1 4 1 2 3 5 5 6 3 3 2 2 2 1 2 1 1 3 5 3 1 2 3 4 7 7 6 6 4 6 5 5 7 8 6 7 8 7 6 6 8
15 15 16 15 14 13 13 11 6 3 2 3 10 15 17 19 18 14 9 5 2 3 3 3 1 2 3 3 8 6 4 3 0 6 16 11 2 2 5 5 4 5 5 2 6 7 3 2 2 3 6 5 3 6 5 4 2 2 1 4 2 1 1 2 3 4 4 2 1 3 4 5 5 5 6 4 2 5 5 4 7 7 7 7 6 6 6 7
16 16 16 14 13 11 10 8 4 4 6 10 16 19 19 17 11 7 5 4 3 3 2 2 1 2 2 4 7 2 3 2 1 4 10 8 2 1 3 3 4 3 2 1 8 8 3 2 1 4 6 5 3 2 2 4 1 3 1 3 4 3 1 3 4 4 4 3 2 4 4 5 5 4 7 5 4 6 4 4 7 7 6 6 6 7 6 5
17 17 15 14 12 10 9 5 4 7 8 10 17 18 16 10 4 2 4 6 2 3 2 2 2 3 3 5 6 1 3 3 3 3 7 7 3 3 3 2 3 3 5 3 5 4 1 3 4 5 4 6 4 1 1 4 4 1 1 4 5 5 3 3 4 3 2 2 2 4 4 3 6 5 7 4 5 7 5 5 7 6 6 6 6 6 5 4
18 18 15 12 11 10 6 3 7 9 6 9 17 15 9 5 2 1 4 6 1 1 1 1 1 3 2 4 5 1 2 3 2 4 5 5 5 3 4 2 2 2 2 3 2 1 0 4 6 5 5 5 3 1 1 3 4 0 2 5 5 4 3 2 4 3 1 3 3 4 4 2 4 5 7 3 2 7 7 6 7 6 6 6 5 6 5 5
18 17 13 10 10 8 3 5 12 8 5 14 17 9 4 2 1 2 6 4 1 1 2 1 1 3 2 3 5 4 2 2 2 2 5 6 5 4 4 1 4 3 2 1 1 1 1 2 3 3 4 2 2 2 2 2 2 2 3 4 3 4 4 3 4 3 1 1 4 5 2 1 4 6 5 2 2 6 8 8 8 6 6 5 4 4 4 5
19 16 10 8 8 5 4 9 10 6 11 20 13 4 2 1 1 4 6 3 1 1 1 1 1 2 4 4 6 5 2 2 2 3 5 4 5 5 4 3 7 7 4 3 3 2 1 0 2 3 2 2 3 3 3 1 1 1 3 3 4 4 3 3 4 3 2 3 4 5 2 0 5 5 3 2 2 7 8 7 7 7 6 5 4 4 4 3
19 14 9 7 5 5 8 8 5 9 19 18 7 2 2 2 5 6 2 2 1 0 1 1 0 2 5 5 5 6 4 2 3 4 4 2 5 7 4 3 6 7 4 6 5 1 2 1 2 3 1 3 3 2 3 1 0 1 3 4 4 4 4 3 2 3 4 3 6 5 1 1 3 5 4 3 4 6 6 5 6 6 6 6 6 5 5 4
17 13 9 7 5 6 8 5 8 17 18 11 4 3 3 3 5 5 2 3 1 0 1 1 2 3 6 4 1 4 4 4 5 4 3 3 6 6 4 3 3 5 5 5 5 3 4 3 1 1 1 2 2 0 1 1 2 2 3 3 3 3 3 3 4 4 3 4 6 5 3 2 2 5 5 6 7 6 7 7 8 8 7 7 6 6 6 5
14 12 9 7 6 6 4 7 16 19 12 6 4 3 4 3 1 2 2 3 1 1 1 1 1 2 4 3 2 3 2 2 4 4 2 1 3 2 2 3 3 3 4 2 2 4 3 0 2 2 1 2 2 1 2 3 4 4 2 4 3 2 4 2 3 1 2 5 3 3 2 1 5 8 7 8 9 8 8 9 10 10 9 8 7 6 6 5
13 11 8 6 7 5 4 11 19 16 8 5 4 4 7 4 2 3 1 2 0 1 1 2 1 2 3 3 2 3 1 0 3 3 1 1 2 2 2 2 4 3 1 2 1 3 3 3 2 1 1 0 2 2 1 1 2 2 2 3 3 2 3 2 4 2 3 4 2 3 2 2 5 6 6 9 10 9 8 8 8 10 10 9 8 6 6 6
11 10 8 6 7 5 5 13 17 13 5 4 5 5 5 2 4 3 1 3 2 2 2 2 2 4 4 2 1 2 1 0 2 2 2 2 3 1 3 2 1 4 4 2 1 2 1 4 1 1 1 1 1 2 3 2 1 2 3 4 2 3 4 3 4 3 3 3 3 3 2 3 3 3 5 8 7 5 4 5 5 6 7 7 6 5 6 6
11 9 7 5 6 6 6 11 15 12 5 3 7 6 3 4 3 2 3 4 2 1 2 2 4 6 4 3 2 1 2 1 2 3 3 1 2 2 2 3 3 3 5 2 2 2 1 4 3 1 1 2 0 2 2 2 1 2 2 3 1 3 4 2 3 4 2 2 3 2 3 4 4 5 5 3 3 2 1 2 4 5 5 5 5 6 6 6
11 9 6 5 6 7 7 10 12 11 6 5 6 3 4 4 2 3 4 3 4 5 4 3 4 5 1 3 2 2 0 0 1 2 1 1 3 4 3 4 4 3 5 4 3 2 0 4 3 2 2 1 1 2 1 0 1 0 1 1 2 3 6 4 1 1 3 1 3 2 3 5 3 5 6 4 0 4 3 3 5 7 6 6 6 7 6 7
11 7 5 4 5 7 9 10 11 10 5 7 5 3 4 3 2 4 3 2 3 5 7 3 1 3 2 2 2 3 1 1 1 1 1 2 2 4 3 2 2 2 4 4 3 3 2 3 3 1 0 2 1 1 0 1 2 2 1 3 3 2 4 3 1 3 4 1 4 2 3 5 2 3 5 3 4 7 7 7 6 6 6 7 8 7 7 7
12 7 3 3 5 8 10 11 11 9 5 6 2 3 2 2 2 3 2 2 3 4 6 4 2 2 3 3 3 3 1 1 2 1 1 2 3 3 3 1 0 0 1 2 0 0 3 1 5 1 1 3 2 1 2 2 1 1 2 1 0 2 1 1 2 0 1 1 4 4 4 4 4 4 4 5 10 12 11 9 7 9 9 9 8 8 8 7
12 6 2 2 6 8 11 11 9 5 6 3 3 2 2 2 2 2 3 2 2 4 4 3 2 2 3 5 4 3 2 3 2 1 1 1 2 1 2 2 1 0 1 1 2 1 2 1 5 3 2 2 3 0 3 1 1 1 1 2 1 3 3 1 2 3 2 2 3 4 5 3 6 6 7 11 14 14 12 10 10 12 11 10 8 8 8 7
9 3 1 3 6 8 10 9 5 5 4 3 4 2 1 2 2 2 3 2 1 2 2 4 3 3 3 3 3 3 2 3 4 2 2 2 1 1 0 1 2 2 1 2 2 1 3 1 4 5 3 1 1 2 5 4 3 2 1 1 1 1 2 1 1 2 3 2 2 1 4 6 7 5 8 12 12 12 13 12 12 12 10 9 9 8 8 8
6 2 1 2 6 8 9 6 3 3 4 2 2 2 1 2 2 1 3 0 1 0 2 5 5 4 4 3 2 4 3 2 3 2 2 3 2 1 1 1 3 3 2 2 1 1 1 2 3 2 2 2 4 4 3 4 4 4 4 4 3 3 3 1 3 2 2 2 4 3 3 9 7 4 6 7 7 8 10 11 11 10 10 10 8 9 9 9
5 2 2 2 7 9 7 4 1 2 4 2 2 2 1 2 2 0 1 1 2 1 2 3 3 3 4 3 2 4 4 3 3 2 2 4 4 2 2 2 2 1 3 3 3 3 2 4 2 2 4 4 5 4 1 2 2 3 2 2 3 3 5 5 3 4 1 1 2 3 1 8 7 4 5 6 6 7 7 9 10 8 9 9 9 9 9 8
3 3 2 3 6 7 6 3 2 2 2 2 1 1 1 2 2 1 1 0 1 1 2 1 1 1 2 3 3 4 5 4 4 4 3 4 3 2 2 2 1 1 2 2 2 1 1 3 1 3 4 3 4 3 1 1 2 1 3 2 3 3 3 5 5 3 2 3 2 2 2 8 7 3 4 5 5 6 6 8 9 8 7 8 9 9 8 8
3 3 1 3 5 4 4 3 3 2 1 1 2 2 1 1 2 3 2 2 1 2 2 1 1 1 1 2 4 4 4 3 4 4 3 3 2 0 0 1 1 2 2 1 2 1 1 1 2 2 4 6 6 5 3 2 0 2 4 2 3 3 4 3 2 2 1 5 6 5 5 8 6 4 4 5 5 4 6 6 7 7 7 7 8 8 8 8
3 2 2 2 3 4 3 4 6 5 3 2 4 2 1 1 1 2 3 2 1 2 3 1 1 3 3 2 4 2 1 0 1 2 1 2 2 1 1 1 1 2 2 2 1 0 1 2 4 4 2 3 3 2 3 2 1 2 2 3 5 5 5 3 2 2 3 4 5 6 7 8 7 6 6 6 6 5 6 6 5 6 7 7 7 7 8 8
4 1 1 2 4 4 2 1 5 6 4 5 4 2 3 2 1 1 2 1 1 1 2 1 1 3 3 2 3 1 1 1 2 1 2 2 2 1 1 1 0 2 3 2 1 1 2 1 3 6 7 6 6 6 5 3 2 2 3 4 5 6 5 5 4 3 5 3 3 8 8 8 13 11 7 6 6 6 7 5 5 7 7 7 7 8 8 8
3 2 4 3 1 1 1 2 3 5 4 5 5 4 5 3 0 1 1 0 0 1 2 2 1 3 3 4 4 2 2 1 2 2 3 3 2 1 2 0 1 1 2 2 2 3 4 2 4 6 7 7 7 6 4 3 3 5 5 5 6 7 6 6 5 6 6 4 6 9 7 7 18 17 10 8 8 7 7 8 8 8 7 7 6 7 8 8
2 3 3 3 2 3 3 4 5 5 3 5 3 4 6 4 3 3 2 1 2 0 2 0 3 6 8 7 5 4 3 1 1 3 2 2 1 1 2 1 0 2 1 0 1 3 5 3 4 4 5 7 5 4 3 3 4 4 6 7 7 8 9 11 13 10 8 7 11 7 7 10 17 16 12 10 9 9 9 10 8 6 6 7 7 9 10 10
2 2 1 2 1 4 3 4 7 7 5 4 2 3 7 7 6 5 2 3 1 3 2 3 7 8 8 6 5 5 5 4 3 5 4 3 2 2 1 1 1 2 2 2 1 1 4 3 3 3 4 7 4 3 2 4 4 4 7 9 7 9 13 14 13 11 10 13 16 9 7 13 17 17 15 9 7 8 8 6 5 7 8 9 10 11 12 12
3 3 1 3 2 2 2 4 7 7 4 2 2 3 5 9 9 5 2 5 4 2 3 6 9 7 7 7 6 5 9 8 4 4 7 5 2 3 3 3 3 2 2 2 1 1 2 3 2 3 2 7 5 3 1 1 3 6 10 8 5 6 9 10 9 7 7 13 16 12 12 17 19 16 12 9 7 7 8 8 9 10 10 10 11 12 12 13
3 4 6 6 2 1 2 3 5 6 4 3 4 4 4 8 10 6 3 5 7 7 9 10 8 4 4 5 7 8 9 9 5 3 9 8 4 4 3 3 7 6 2 3 1 1 2 2 0 4 1 6 4 4 4 4 2 7 13 11 10 9 7 8 7 7 9 12 13 9 9 16 17 9 5 8 8 9 11 12 10 10 9 10 12 13 14 14
4 4 5 6 3 1 2 3 4 4 5 4 5 5 4 6 8 7 4 3 3 5 8 9 8 6 4 6 11 10 8 9 5 3 5 5 4 3 2 3 7 7 6 5 2 1 4 3 1 3 2 6 5 2 3 5 5 7 10 11 14 13 10 7 5 8 13 12 8 8 11 16 12 4 5 10 8 8 11 11 9 10 10 11 13 14 14 14
Wind_Direction
105 112 117 115 114 114 117 120 124 128 130 131 133 134 132 127 123 119 116 108 109 109 104 99 91 89 88 84 82 83 88 91 72 56 49 7 353 359 357 8 28 42 61 92 105 97 81 68 70 74 74 63 29 9 37 31 38 59 68 75 86 133 154 172 176 197 167 142 173 176 139 125 148 268 274 20 50 67 44 31 335 360 27 93 206 180 164 168
101 116 121 118 115 113 114 117 122 125 127 131 132 133 130 125 126 120 117 113 112 113 108 97 90 99 96 93 89 78 82 82 63 41 22 2 6 15 19 27 37 42 59 87 93 92 82 51 65 66 52 44 15 5 25 17 36 70 101 83 107 199 184 165 165 186 161 142 162 159 138 142 163 180 123 168 257 109 118 284 329 5 346 88 135 149 160 168
98 115 125 122 116 112 112 114 117 122 124 129 130 130 127 125 127 120 116 117 118 114 102 87 88 100 96 104 113 90 73 68 56 18 359 6 20 28 38 42 36 39 59 86 91 95 96 86 79 73 46 49 31 17 36 18 30 69 98 83 204 208 128 46 149 161 159 137 138 145 146 177 176 165 149 185 204 214 199 216 206 216 229 190 159 157 164 175
102 114 127 124 117 112 110 112 114 118 121 125 128 125 124 124 124 118 116 121 120 108 88 76 74 58 79 147 127 180 39 56 44 341 353 6 21 31 46 46 35 45 76 99 97 96 96 85 73 66 63 59 7 26 38 358 41 53 71 114 173 152 87 343 161 137 135 126 139 142 121 191 194 165 174 155 155 257 245 219 202 202 199 192 186 176 176 184
107 116 127 124 118 114 111 115 116 117 120 123 124 121 121 120 119 117 118 123 116 103 87 78 67 41 25 283 283 261 298 60 351 338 357 5 21 36 50 44 37 54 98 109 101 99 93 74 62 50 59 57 358 29 25 346 70 70 34 108 150 129 105 284 118 113 122 106 117 131 136 186 174 164 182 158 169 232 233 215 214 208 186 184 188 186 185 191
114 123 130 127 121 117 117 120 119 118 119 121 123 121 121 116 116 116 115 122 119 110 96 80 69 63 63 61 91 78 81 96 326 343 356 4 22 39 52 48 44 65 120 124 105 96 83 56 54 44 51 59 27 46 22 345 55 95 61 47 73 110 110 278 41 99 121 103 123 154 174 167 135 260 198 173 203 227 231 214 212 212 192 184 182 182 188 195
120 128 134 132 126 121 122 124 122 119 117 122 127 125 123 117 115 114 115 125 131 125 96 69 68 77 78 86 88 75 81 65 336 348 356 5 22 42 60 61 63 93 130 124 103 94 82 67 77 75 72 75 53 61 60 32 52 82 110 84 59 89 84 343 91 100 107 114 168 175 133 163 179 232 184 197 230 240 254 231 210 208 191 181 178 183 193 199
123 130 136 134 129 125 126 127 123 118 118 126 130 127 121 118 115 109 119 131 138 139 96 54 69 75 93 107 92 67 64 336 340 353 359 10 30 41 67 74 76 96 103 103 105 104 90 81 104 127 77 68 91 108 89 61 51 61 122 152 91 78 74 56 83 78 94 118 157 123 158 238 209 206 204 228 235 236 241 209 188 182 173 177 181 190 198 203
126 131 134 134 133 130 131 130 125 121 124 131 131 128 118 115 111 103 120 135 137 140 95 57 87 75 102 112 96 66 5 337 347 359 6 23 47 53 78 77 72 98 92 91 106 102 90 99 146 135 112 106 99 99 34 66 63 122 131 129 105 94 76 66 72 61 97 133 78 114 250 272 246 249 265 233 216 215 200 147 155 156 164 185 191 197 200 206
132 133 133 136 136 136 137 135 133 131 133 138 133 125 119 113 105 104 118 122 123 128 96 94 94 86 104 95 81 68 337 351 9 11 19 42 61 68 71 63 70 109 95 78 81 84 102 130 126 113 112 102 81 21 357 92 124 129 109 96 89 90 22 48 90 30 83 214 123 145 245 280 285 312 269 244 211 194 167 146 158 159 177 197 199 204 204 208
137 134 134 141 141 142 144 141 142 144 146 142 132 122 121 112 103 108 110 99 87 80 82 87 75 123 94 72 82 91 349 12 27 20 35 58 67 70 68 66 83 105 97 77 76 95 106 118 119 110 101 87 93 43 30 99 114 111 107 79 35 28 12 31 98 268 319 212 166 147 227 291 324 271 240 238 201 181 169 170 182 178 195 204 205 212 210 214
147 141 140 144 146 147 145 145 147 148 152 140 130 124 117 112 109 112 106 97 92 86 94 98 107 124 91 67 63 83 22 28 32 30 48 63 69 71 72 73 78 94 105 94 84 100 106 118 108 89 85 116 113 74 78 115 101 110 97 79 10 14 9 272 215 232 190 199 171 128 310 299 255 233 247 236 176 170 177 189 204 201 209 214 212 217 216 222
158 148 146 148 150 150 145 147 147 146 149 137 131 125 119 119 115 114 110 105 105 101 105 103 110 117 90 64 5 56 46 34 38 52 65 72 77 77 77 79 79 86 104 101 88 88 91 117 107 95 91 104 111 129 124 103 84 99 60 84 64 14 338 253 201 162 198 183 139 111 287 279 252 242 253 234 161 154 181 208 219 222 228 233 231 230 229 229
164 155 149 152 153 150 147 145 143 143 141 133 128 122 120 120 117 119 116 110 110 109 111 105 110 96 85 83 2 49 37 33 41 50 59 74 86 85 81 82 84 85 94 95 89 89 95 102 99 91 69 89 125 121 88 49 51 87 62 64 87 62 281 275 268 155 185 193 104 102 226 261 270 265 251 205 166 163 192 218 221 228 238 241 243 239 242 237
167 160 148 148 150 147 145 141 141 140 133 125 122 120 119 118 118 118 115 112 106 106 112 103 106 100 80 53 13 32 25 33 33 35 40 54 74 82 81 82 85 85 89 91 88 89 93 93 84 73 63 52 89 97 59 24 25 56 100 313 350 129 264 298 271 176 190 258 95 106 235 266 266 273 255 188 172 181 199 223 226 230 237 237 243 236 240 244
167 163 148 142 143 141 140 138 137 134 126 121 118 119 120 116 114 113 114 113 102 106 112 90 89 98 90 46 11 14 22 21 16 28 36 42 59 72 81 86 85 85 86 85 88 83 78 79 66 63 89 48 76 95 64 45 8 359 70 259 270 166 236 304 275 199 177 234 57 131 232 278 275 289 291 182 178 194 211 235 234 232 239 234 239 237 239 249
165 158 146 140 138 138 138 136 135 129 122 120 119 121 120 114 110 108 105 98 92 105 108 89 76 83 75 9 46 357 349 356 5 28 39 40 51 64 83 87 75 76 81 74 76 63 50 59 53 53 72 52 81 91 67 49 321 321 29 260 245 194 187 280 269 255 80 105 265 356 222 256 270 290 298 225 190 194 218 237 238 235 241 238 240 245 247 250
160 151 144 141 139 138 139 136 131 125 119 117 116 118 118 113 113 103 92 101 104 100 100 69 45 73 57 337 51 318 316 338 4 24 30 34 45 55 66 68 51 50 61 50 45 34 21 29 63 70 33 18 28 67 95 180 197 182 176 181 254 245 219 235 228 242 56 76 252 319 262 264 277 284 280 246 197 194 222 233 243 244 243 245 246 248 250 250
157 149 146 142 140 140 141 136 128 126 123 120 119 118 114 109 106 82 61 68 88 88 99 357 7 106 172 82 350 312 317 342 9 22 23 22 38 53 48 41 44 56 59 35 17 24 37 32 47 73 54 16 31 107 142 195 153 145 184 162 174 203 243 249 248 257 126 69 269 234 252 274 287 290 285 260 200 198 237 246 254 253 250 253 253 253 251 248
156 150 147 142 142 144 141 137 134 134 128 124 126 120 114 100 80 43 37 50 64 79 93 350 2 93 90 31 337 333 356 25 28 29 22 14 26 54 28 18 30 46 59 57 346 9 75 71 68 141 176 219 236 188 152 171 116 111 150 122 161 186 254 263 266 288 133 85 265 229 260 276 276 281 291 278 190 200 240 245 249 250 251 253 252 255 252 246
157 152 148 143 145 146 144 144 142 140 131 133 140 123 149 138 93 174 36 51 53 62 70 61 69 76 72 21 351 353 5 54 30 25 21 9 26 61 350 11 51 39 8 295 303 355 62 82 127 211 207 216 245 244 13 8 89 157 165 133 125 186 254 258 248 296 33 87 265 301 322 284 270 275 288 230 165 206 225 225 241 245 247 254 251 258 259 259
157 154 149 146 149 149 148 148 143 143 135 138 150 117 137 145 122 137 129 88 26 34 49 39 48 48 45 35 9 1 42 52 15 8 11 6 24 64 338 39 79 90 346 352 19 23 44 96 205 232 218 222 312 28 89 74 61 130 173 131 109 251 268 273 292 324 19 113 272 344 345 288 276 279 279 196 184 228 224 215 232 234 240 252 246 254 265 275
157 155 152 150 152 150 151 151 148 147 133 115 134 121 117 117 119 121 110 101 41 17 24 25 37 16 3 23 9 12 64 65 350 341 357 5 27 69 71 65 76 75 3 16 115 98 65 214 233 250 52 49 10 32 104 120 41 68 116 115 222 289 359 255 305 329 326 210 269 338 343 292 296 316 299 240 213 261 260 232 241 234 233 244 248 255 257 263
161 157 154 153 152 153 155 156 159 144 103 119 126 124 124 122 122 117 97 88 69 15 15 18 64 53 10 354 358 18 91 88 173 325 351 12 69 41 79 111 82 54 359 16 116 108 82 280 264 51 45 64 35 21 86 120 13 350 126 133 183 281 58 230 285 329 331 346 333 11 1 307 322 345 302 292 261 279 300 278 262 254 243 251 272 270 247 247
164 159 154 151 152 157 160 160 169 144 120 126 130 128 127 127 127 114 82 68 43 333 338 5 30 47 4 353 355 358 137 60 48 304 348 21 64 27 75 117 86 81 269 77 93 91 73 298 333 51 36 62 94 16 76 144 174 309 250 156 166 171 149 319 333 9 26 10 337 33 29 293 314 315 265 292 322 282 304 299 264 267 268 262 267 266 260 262
166 159 152 150 155 158 161 160 157 140 118 125 136 133 131 128 126 116 79 67 34 299 317 345 357 19 348 350 348 339 109 13 310 326 3 20 22 88 82 358 60 137 205 143 92 104 82 350 52 82 60 53 60 336 238 158 136 10 221 163 149 136 105 25 15 46 88 241 300 54 110 248 315 303 250 277 311 291 310 301 270 273 275 255 242 252 267 274
166 159 152 155 160 160 166 179 164 148 118 145 148 138 137 124 74 70 66 58 10 254 74 304 332 35 343 327 339 68 123 306 322 15 16 19 359 68 90 340 59 98 194 141 72 75 48 13 44 67 62 48 31 288 222 148 126 262 185 134 120 116 117 95 75 69 193 241 321 24 100 189 297 275 261 278 275 289 306 294 285 285 278 270 254 254 254 247
168 163 159 161 165 171 209 185 166 160 144 158 155 141 151 148 48 67 81 88 255 79 75 288 34 29 332 346 21 79 149 320 66 344 347 26 359 35 82 150 143 111 7 109 203 292 52 38 45 58 60 66 233 246 242 164 112 247 187 126 105 120 133 123 92 80 343 346 310 323 51 156 268 275 306 6 196 267 277 259 265 271 274 278 257 244 238 231
172 172 169 168 173 187 198 170 164 162 155 157 157 152 163 150 71 64 78 127 250 32 39 346 64 346 343 20 21 32 40 20 87 297 332 31 14 38 90 161 136 111 30 56 149 182 44 141 152 115 114 223 230 251 240 167 51 220 146 86 55 76 86 77 87 105 42 28 254 269 14 60 273 279 312 35 223 250 251 246 249 249 256 252 217 199 199 198
176 180 178 175 186 178 161 162 166 156 155 158 166 171 134 79 70 68 70 214 148 34 279 356 246 324 27 48 6 5 36 1 330 339 352 30 21 34 95 147 109 97 36 39 84 118 343 327 142 112 160 200 175 224 229 146 276 159 95 62 44 34 43 56 51 89 65 338 254 253 288 143 280 278 230 198 222 211 205 236 248 238 241 235 224 209 190 174
176 181 180 180 184 167 158 156 152 151 152 157 174 144 80 38 66 92 203 241 102 203 333 7 315 15 54 90 32 2 30 349 332 5 20 13 17 22 56 91 84 64 19 22 42 353 352 22 359 285 235 160 112 214 236 52 32 77 82 71 64 348 12 32 349 39 86 270 261 262 280 164 215 265 237 226 243 213 183 196 207 211 217 220 225 219 198 181
176 179 180 188 181 166 161 156 151 147 141 131 129 97 72 52 19 140 245 317 9 207 164 160 287 54 72 87 49 344 353 356 2 47 85 27 29 16 64 153 177 42 347 308 38 350 328 329 291 314 303 152 113 37 2 5 28 59 68 71 74 344 4 5 309 352 204 245 268 279 295 214 228 247 237 230 240 228 204 195 190 193 202 211 218 214 204 189
178 182 183 191 186 174 150 157 157 149 134 99 70 59 75 87 225 213 233 355 56 241 85 93 79 85 90 77 33 315 321 358 2 45 150 135 52 348 309 211 171 105 348 219 89 3 321 313 315 325 309 126 124 138 188 319 41 93 147 108 102 85 49 310 278 295 258 254 285 281 283 276 267 264 232 225 232 223 212 209 195 187 190 197 204 203 200 200
184 189 195 199 192 190 159 164 172 170 149 56 49 72 81 123 214 191 218 244 242 330 25 93 84 58 54 77 258 273 120 24 336 38 34 28 47 332 293 282 165 99 98 127 167 162 250 293 285 181 244 41 66 186 173 170 144 175 171 130 135 156 144 228 242 222 253 277 297 294 273 200 222 268 233 231 254 255 226 224 204 196 198 188 187 191 191 205
193 195 203 207 198 195 168 170 184 186 175 55 57 83 124 215 223 173 205 222 220 9 23 49 83 66 22 342 313 268 169 238 341 47 32 32 165 200 225 226 211 124 113 153 234 147 175 256 258 301 271 122 326 253 143 104 166 216 156 104 126 175 144 158 198 189 205 316 304 270 234 215 214 269 283 280 280 276 243 211 171 190 205 175 174 192 193 206
193 193 196 200 200 194 175 171 177 178 162 81 66 95 188 213 205 166 177 164 155 155 122 63 72 85 347 303 334 346 274 237 39 56 352 259 200 203 209 212 206 161 133 155 205 156 172 276 292 347 333 135 189 239 100 120 216 182 105 197 232 151 115 112 209 302 69 48 282 250 253 294 317 285 310 18 257 229 228 219 193 195 197 180 192 203 199 208
180 175 173 186 195 185 172 165 163 162 131 82 94 195 209 208 180 169 163 112 132 132 115 113 143 146 180 221 279 303 337 333 4 65 240 269 234 202 198 224 209 171 159 165 206 180 149 277 297 57 43 268 209 158 336 243 184 109 159 240 251 129 96 95 103 352 40 202 279 287 251 288 331 281 310 352 229 235 233 224 223 222 208 201 212 210 204 208
164 148 139 166 184 176 163 159 161 153 97 77 119 224 197 177 180 169 164 141 126 99 103 138 179 177 178 173 227 253 165 198 305 74 183 260 257 201 166 172 143 97 197 166 256 228 127 263 297 353 177 297 358 76 302 293 138 133 193 247 72 143 141 58 129 216 11 268 288 303 291 262 212 226 255 223 217 224 226 219 221 226 215 210 217 213 211 212
155 127 80 156 166 165 159 161 160 118 76 109 192 230 182 193 241 217 200 184 122 103 126 179 153 103 160 161 181 213 179 190 202 166 178 206 257 218 137 148 141 43 304 106 140 208 101 125 286 289 224 294 1 65 241 258 55 32 308 329 5 163 173 149 147 173 189 246 278 308 326 275 228 217 200 208 215 211 210 210 215 219 212 207 208 204 204 204
151 102 345 175 157 166 163 153 126 84 92 170 196 191 172 206 244 250 243 219 137 106 159 181 147 119 160 166 175 178 146 160 163 165 219 211 243 276 61 93 131 150 303 35 106 105 61 103 254 295 313 278 256 212 199 188 156 119 181 250 278 204 162 186 275 148 147 173 199 268 304 268 247 213 193 211 218 209 204 205 212 216 209 207 204 198 198 197
135 93 252 167 149 166 153 120 79 103 124 157 180 169 189 174 160 274 292 287 129 228 166 149 143 148 153 155 196 177 133 133 160 171 240 216 214 265 336 101 142 150 131 85 139 198 103 147 200 289 314 225 242 249 196 177 166 153 178 197 184 162 129 126 287 290 113 160 180 165 271 272 258 208 212 231 232 223 214 207 213 214 205 206 205 199 196 192
106 145 231 146 159 169 134 87 347 96 111 170 190 154 146 127 110 101 293 27 73 56 68 105 124 141 152 160 182 164 138 145 175 184 216 210 204 213 195 158 178 170 131 155 231 227 144 114 124 243 234 222 259 283 132 146 149 145 204 206 148 141 127 138 222 252 170 169 172 117 254 271 264 217 229 254 252 244 226 209 216 216 205 205 204 203 200 195
115 172 189 119 160 163 106 78 294 36 79 241 244 60 61 104 103 128 240 291 97 86 43 57 137 138 180 167 143 164 173 172 180 189 211 219 216 212 182 162 193 170 122 155 207 209 129 109 110 284 290 309 316 328 48 64 78 143 259 219 152 168 150 152 179 183 167 191 159 103 270 270 276 266 247 261 271 259 230 209 209 211 211 209 203 202 200 195
135 152 97 104 151 155 116 147 185 164 218 289 43 48 359 57 116 149 196 220 188 144 131 168 181 123 168 128 110 171 195 179 188 202 204 197 204 347 34 293 246 171 159 180 158 165 251 160 109 360 330 338 343 349 342 322 228 225 245 219 186 169 118 126 146 91 265 224 160 146 245 256 273 314 305 305 330 305 250 226 211 207 209 209 204 199 194 188
115 96 1 35 95 112 151 175 152 144 173 123 101 138 137 51 106 168 179 195 196 159 147 172 165 98 98 88 80 115 174 88 198 206 139 194 235 338 19 304 268 182 218 248 213 291 240 172 127 134 195 255 270 279 270 248 229 242 232 210 210 183 146 159 143 112 244 241 156 171 234 259 284 321 327 317 324 306 270 248 229 227 219 209 203 195 189 186
127 95 315 324 15 70 122 159 114 126 162 144 128 177 146 114 282 247 140 140 162 133 94 58 133 93 76 102 106 121 239 19 46 126 174 219 250 282 271 339 107 188 210 220 226 71 93 191 186 164 189 210 201 219 226 164 141 220 222 214 207 194 163 132 115 171 200 189 203 221 236 285 288 282 283 284 276 264 261 249 233 238 231 218 210 198 193 191
142 164 167 166 351 72 67 348 106 129 181 171 158 181 162 145 291 4 56 241 190 122 69 49 138 149 157 156 144 180 201 60 41 161 185 203 222 280 292 14 76 256 232 203 222 105 93 282 236 186 218 226 199 218 228 161 191 212 207 213 203 191 163 146 190 217 164 133 257 238 200 251 271 266 249 242 243 242 244 238 232 230 221 213 205 197 200 199
157 184 173 144 159 186 202 214 168 136 168 176 152 157 161 159 167 171 184 352 357 216 142 107 246 206 186 171 152 160 160 87 279 221 173 153 178 8 353 330 316 336 41 72 307 113 122 246 231 183 254 260 219 234 225 192 236 224 204 216 201 179 176 190 216 213 163 194 248 236 174 222 257 266 254 232 223 226 231 226 226 226 212 200 194 198 204 202
114 129 17 40 152 185 185 173 149 133 153 164 125 163 171 176 191 199 164 90 342 275 183 207 247 220 194 184 146 148 172 168 220 229 187 149 174 147 107 212 238 2 71 119 301 141 150 232 221 170 277 285 274 276 224 202 260 269 240 229 201 190 198 207 225 219 199 232 253 262 263 259 260 262 261 244 209 219 245 246 226 220 212 202 201 205 207 203
150 166 151 60 74 120 84 106 129 139 167 177 191 204 177 177 191 207 167 144 170 237 188 214 235 210 186 188 162 182 204 178 153 199 175 147 171 195 192 195 168 71 43 145 210 271 210 243 202 116 315 293 301 346 353 190 232 260 264 250 206 209 224 230 244 237 221 247 259 267 277 274 266 260 260 253 214 212 246 249 233 225 216 207 207 211 211 208
155 157 147 124 119 133 93 91 119 139 176 206 203 204 191 193 193 184 189 182 165 168 187 201 202 156 133 183 204 232 220 175 139 181 176 162 169 194 209 181 148 137 162 182 163 165 182 233 357 81 350 280 305 3 331 331 302 265 272 256 217 208 219 222 224 211 204 227 248 260 263 262 264 266 262 249 222 212 233 237 235 238 223 208 211 215 214 212
128 117 130 121 127 178 127 110 119 154 193 203 190 189 200 206 189 167 182 220 170 179 199 187 158 117 108 190 221 232 206 177 177 188 165 143 105 99 106 131 133 138 162 167 146 163 158 159 160 122 190 268 295 343 328 345 333 272 261 237 209 206 219 238 246 225 212 209 221 233 236 247 265 301 282 258 231 212 232 233 228 237 228 213 216 218 216 215